Weather History for Appleton, MN

Change the Weather History Date:

Wednesday, September 25, 2013

  Actual Average Record
Temperature  
Mean Temperature 63 °F -  
Max Temperature 78 °F 66 °F 82 °F (2008)
Min Temperature 48 °F 40 °F 28 °F (2003)
Degree Days  
Heating Degree Days 2    
Growing Degree Days 13 (Base 50)    
Moisture  
Dew Point 50 °F    
Average Humidity 66    
Maximum Humidity 94    
Minimum Humidity 30    
Precipitation  
Precipitation 0.00 in - - ()
Sea Level Pressure  
Sea Level Pressure 29.85 in    
Wind  
Wind Speed 6 mph (SE)    
Max Wind Speed 18 mph    
Max Gust Speed 26 mph    
Visibility 9 miles    
Events      
Averages and records for this station are not official NWS values.
T = Trace of Precipitation, MM = Missing Value Source: NWS Daily Summary

Daily Weather History Graph

Daily Weather History Graph

Search for Another Location

Airport:

Trip Planner

Search our weather history database for the weather conditions in past years. The results will help you decide how hot, cold, wet, or windy it might be!

Date:

Astronomy

Sep. 25, 2013 Rise Set
Actual Time 7:15 AM CDT 7:15 PM CDT
Civil Twilight 6:45 AM CDT 7:44 PM CDT
Nautical Twilight 6:11 AM CDT 8:18 PM CDT
Astronomical Twilight 5:36 AM CDT 8:53 PM CDT
Moon 11:08 PM CDT (9/25) 1:36 PM CDT (9/25)
Length of Visible Light 12h 58m
Length of Day
12h 00m
Waning Gibbous, 64% of the Moon is Illuminated
Sep 25
Waning Gibbous
Sep 26
Last Quarter
Oct 4
New
Oct 11
First Quarter
Oct 18
Full

Hourly Weather History & Observations

Time (CDT) Temp. Dew Point Humidity Pressure Visibility Wind Dir Wind Speed Gust Speed Precip Events Conditions
12:13 AM 53.6 °F 50.0 °F 88% 29.92 in 10.0 mi Calm Calm - N/A   Clear
12:33 AM 53.6 °F 50.0 °F 88% 29.92 in 10.0 mi Calm Calm - N/A   Clear
12:53 AM 51.8 °F 48.2 °F 88% 29.92 in 10.0 mi Calm Calm - N/A   Clear
1:13 AM 51.8 °F 48.2 °F 88% 29.92 in 10.0 mi ESE 4.6 mph - N/A   Clear
1:34 AM 51.8 °F 50.0 °F 94% 29.92 in 7.0 mi Calm Calm - N/A   Clear
1:53 AM 51.8 °F 48.2 °F 88% 29.92 in 10.0 mi Calm Calm - N/A   Clear
2:13 AM 51.8 °F 48.2 °F 88% 29.92 in 7.0 mi Calm Calm - N/A   Clear
2:33 AM 51.8 °F 48.2 °F 88% 29.92 in 5.0 mi Calm Calm - N/A   Clear
2:53 AM 50.0 °F 48.2 °F 94% 29.92 in 5.0 mi ESE 4.6 mph - N/A   Clear
3:13 AM 51.8 °F 48.2 °F 88% 29.91 in 7.0 mi ESE 5.8 mph - N/A   Clear
3:33 AM 51.8 °F 48.2 °F 88% 29.91 in 7.0 mi ESE 4.6 mph - N/A   Clear
3:53 AM 51.8 °F 48.2 °F 88% 29.91 in 7.0 mi ESE 4.6 mph - N/A   Clear
4:14 AM 51.8 °F 48.2 °F 88% 29.91 in 5.0 mi Calm Calm - N/A   Clear
4:33 AM 50.0 °F 48.2 °F 94% 29.91 in 5.0 mi Calm Calm - N/A   Clear
4:53 AM 48.2 °F 46.4 °F 93% 29.91 in 4.0 mi ESE 5.8 mph - N/A   Clear
5:13 AM 51.8 °F 48.2 °F 88% 29.91 in 5.0 mi ESE 4.6 mph - N/A   Clear
5:33 AM 51.8 °F 48.2 °F 88% 29.90 in 5.0 mi ESE 5.8 mph - N/A   Clear
5:53 AM 51.8 °F 48.2 °F 88% 29.90 in 5.0 mi ESE 4.6 mph - N/A   Clear
6:13 AM 51.8 °F 48.2 °F 88% 29.90 in 5.0 mi ESE 3.5 mph - N/A   Clear
6:33 AM 51.8 °F 48.2 °F 88% 29.90 in 5.0 mi ESE 4.6 mph - N/A   Clear
6:53 AM 51.8 °F 48.2 °F 88% 29.90 in 5.0 mi SE 5.8 mph - N/A   Clear
7:13 AM 51.8 °F 48.2 °F 88% 29.91 in 5.0 mi SE 4.6 mph - N/A   Clear
7:33 AM 51.8 °F 50.0 °F 94% 29.91 in 3.0 mi SE 5.8 mph - N/A   Clear
7:53 AM 53.6 °F 51.8 °F 94% 29.90 in 4.0 mi SE 5.8 mph - N/A   Clear
8:13 AM 53.6 °F 51.8 °F 94% 29.90 in 3.0 mi SE 5.8 mph - N/A   Clear
8:33 AM 53.6 °F 51.8 °F 94% 29.90 in 7.0 mi SE 5.8 mph - N/A   Clear
8:53 AM 55.4 °F 53.6 °F 94% 29.89 in 7.0 mi SE 4.6 mph - N/A   Clear
9:13 AM 57.2 °F 55.4 °F 94% 29.90 in 10.0 mi SSE 5.8 mph - N/A   Clear
9:33 AM 60.8 °F 55.4 °F 82% 29.90 in 10.0 mi SSE 5.8 mph - N/A   Clear
9:54 AM 62.6 °F 55.4 °F 77% 29.90 in 10.0 mi SSE 6.9 mph - N/A   Clear
10:13 AM 66.2 °F 55.4 °F 68% 29.90 in 10.0 mi SSE 5.8 mph - N/A   Clear
10:33 AM 68.0 °F 55.4 °F 64% 29.90 in 10.0 mi SSE 6.9 mph - N/A   Clear
10:53 AM 69.8 °F 55.4 °F 60% 29.90 in 10.0 mi SE 9.2 mph - N/A   Clear
11:14 AM 71.6 °F 55.4 °F 57% 29.90 in 10.0 mi SSE 8.1 mph - N/A   Clear
11:33 AM 71.6 °F 55.4 °F 57% 29.90 in 10.0 mi SSE 9.2 mph - N/A   Clear
11:54 AM 73.4 °F 53.6 °F 50% 29.89 in 10.0 mi SSE 12.7 mph 18.4 mph N/A   Clear
12:13 PM 75.2 °F 53.6 °F 47% 29.88 in 10.0 mi SSE 11.5 mph 20.7 mph N/A   Clear
12:33 PM 75.2 °F 53.6 °F 47% 29.87 in 10.0 mi SE 16.1 mph 19.6 mph N/A   Clear
12:54 PM 75.2 °F 51.8 °F 44% 29.86 in 10.0 mi SSE 13.8 mph 21.9 mph N/A   Clear
1:13 PM 75.2 °F 51.8 °F 44% 29.85 in 10.0 mi SE 11.5 mph 19.6 mph N/A   Clear
1:33 PM 75.2 °F 51.8 °F 44% 29.84 in 10.0 mi SE 15.0 mph 24.2 mph N/A   Clear
1:53 PM 75.2 °F 50.0 °F 41% 29.83 in 10.0 mi SSE 13.8 mph 26.5 mph N/A   Clear
2:14 PM 77.0 °F 48.2 °F 36% 29.82 in 10.0 mi SSE 12.7 mph 25.3 mph N/A   Clear
2:34 PM 78.8 °F 48.2 °F 34% 29.81 in 10.0 mi SE 13.8 mph 20.7 mph N/A   Clear
2:53 PM 78.8 °F 44.6 °F 30% 29.80 in 10.0 mi SSE 13.8 mph 23.0 mph N/A   Clear
3:14 PM 78.8 °F 46.4 °F 32% 29.79 in 10.0 mi SSE 13.8 mph 23.0 mph N/A   Clear
3:34 PM 78.8 °F 44.6 °F 30% 29.79 in 10.0 mi SE 13.8 mph 23.0 mph N/A   Clear
3:53 PM 78.8 °F 44.6 °F 30% 29.78 in 10.0 mi SSE 16.1 mph 19.6 mph N/A   Clear
4:13 PM 78.8 °F 44.6 °F 30% 29.78 in 10.0 mi SSE 18.4 mph 23.0 mph N/A   Clear
4:33 PM 78.8 °F 44.6 °F 30% 29.77 in 10.0 mi SE 17.3 mph 25.3 mph N/A   Clear
4:53 PM 78.8 °F 46.4 °F 32% 29.77 in 10.0 mi SE 16.1 mph 23.0 mph N/A   Clear
5:13 PM 77.0 °F 46.4 °F 34% 29.77 in 10.0 mi SE 15.0 mph 23.0 mph N/A   Clear
5:33 PM 77.0 °F 46.4 °F 34% 29.76 in 10.0 mi SE 11.5 mph 18.4 mph N/A   Clear
5:53 PM 75.2 °F 48.2 °F 38% 29.76 in 10.0 mi SE 15.0 mph 18.4 mph N/A   Clear
6:14 PM 75.2 °F 48.2 °F 38% 29.76 in 10.0 mi SE 13.8 mph 20.7 mph N/A   Clear
6:33 PM 73.4 °F 48.2 °F 41% 29.76 in 10.0 mi SE 12.7 mph - N/A   Clear
6:54 PM 71.6 °F 50.0 °F 46% 29.76 in 10.0 mi SE 10.4 mph - N/A   Clear
7:13 PM 71.6 °F 50.0 °F 46% 29.76 in 10.0 mi SE 11.5 mph - N/A   Clear
7:34 PM 69.8 °F 50.0 °F 49% 29.76 in 10.0 mi ESE 11.5 mph 16.1 mph N/A   Clear
7:54 PM 68.0 °F 50.0 °F 52% 29.77 in 10.0 mi ESE 9.2 mph - N/A   Clear
8:14 PM 66.2 °F 51.8 °F 60% 29.77 in 10.0 mi ESE 11.5 mph 17.3 mph N/A   Clear
8:33 PM 66.2 °F 51.8 °F 60% 29.76 in 10.0 mi ESE 13.8 mph - N/A   Clear
8:53 PM 66.2 °F 51.8 °F 60% 29.77 in 10.0 mi ESE 12.7 mph - N/A   Clear
9:14 PM 64.4 °F 51.8 °F 64% 29.78 in 10.0 mi ESE 11.5 mph - N/A   Clear
9:33 PM 64.4 °F 51.8 °F 64% 29.78 in 10.0 mi SE 11.5 mph - N/A   Clear
9:53 PM 64.4 °F 51.8 °F 64% 29.79 in 10.0 mi SE 11.5 mph 16.1 mph N/A   Clear
10:13 PM 64.4 °F 51.8 °F 64% 29.79 in 10.0 mi SE 12.7 mph 17.3 mph N/A   Clear
10:34 PM 64.4 °F 51.8 °F 64% 29.80 in 10.0 mi SE 11.5 mph - N/A   Clear
10:53 PM 62.6 °F 51.8 °F 68% 29.80 in 10.0 mi SE 11.5 mph - N/A   Clear
11:14 PM 62.6 °F 51.8 °F 68% 29.80 in 10.0 mi SE 12.7 mph 18.4 mph N/A   Clear
11:33 PM 62.6 °F 51.8 °F 68% 29.80 in 10.0 mi SE 12.7 mph 18.4 mph N/A   Clear
11:53 PM 62.6 °F 51.8 °F 68% 29.80 in 10.0 mi SE 11.5 mph - N/A   Clear